Folly Beach Weather Center

Moon Phase Calendar



Online Cameras

 


      

Current Conditions in Kiawah Island
10/21/2021 9:52:26 AM

66°F
Feels Like 67
Clear
Humidity
90%
Pressure
30.24"
Wind
0
Dew Point
63°F
UV Index
1/10 (Low)
Visibility
6 mi

Hourly Forecast

Date & Time Thu, Oct 21
9:00 AM
Thu, Oct 21
10:00 AM
Thu, Oct 21
11:00 AM
Thu, Oct 21
12:00 PM
Thu, Oct 21
1:00 PM
Thu, Oct 21
2:00 PM
Thu, Oct 21
3:00 PM
Thu, Oct 21
4:00 PM
Thu, Oct 21
5:00 PM
Thu, Oct 21
6:00 PM
Thu, Oct 21
7:00 PM
Thu, Oct 21
8:00 PM
Thu, Oct 21
9:00 PM
Thu, Oct 21
10:00 PM
Thu, Oct 21
11:00 PM
Fri, Oct 22
12:00 AM
Fri, Oct 22
1:00 AM
Fri, Oct 22
2:00 AM
Fri, Oct 22
3:00 AM
Fri, Oct 22
4:00 AM
Fri, Oct 22
5:00 AM
Fri, Oct 22
6:00 AM
Fri, Oct 22
7:00 AM
Fri, Oct 22
8:00 AM
Fri, Oct 22
9:00 AM
Fri, Oct 22
10:00 AM
Fri, Oct 22
11:00 AM
Fri, Oct 22
12:00 PM
Fri, Oct 22
1:00 PM
Fri, Oct 22
2:00 PM
Fri, Oct 22
3:00 PM
Fri, Oct 22
4:00 PM
Fri, Oct 22
5:00 PM
Fri, Oct 22
6:00 PM
Fri, Oct 22
7:00 PM
Fri, Oct 22
8:00 PM
Fri, Oct 22
9:00 PM
Fri, Oct 22
10:00 PM
Fri, Oct 22
11:00 PM
Sat, Oct 23
12:00 AM
Sat, Oct 23
1:00 AM
Sat, Oct 23
2:00 AM
Sat, Oct 23
3:00 AM
Sat, Oct 23
4:00 AM
Sat, Oct 23
5:00 AM
Sat, Oct 23
6:00 AM
Sat, Oct 23
7:00 AM
Sat, Oct 23
8:00 AM
Condition
Clouds

Clear

Clouds

Clouds

Clouds

Clouds

Clouds

Clouds

Clouds

Clouds

Clouds

Clouds

Clear

Clear

Clear

Clear

Clear

Clear

Clear

Clouds

Rain

Clouds

Clouds

Clouds

Clouds

Clouds

Clouds

Clouds

Clouds

Clouds

Clouds

Rain

Clouds

Clouds

Clouds

Rain

Clear

Clear

Clear

Clear

Clear

Clear

Clouds

Clouds

Clouds

Clear

Clear

Clear
Temperature 66°F66°F68°F70°F73°F76°F78°F77°F76°F74°F72°F71°F71°F71°F71°F70°F70°F70°F70°F70°F71°F72°F71°F70°F72°F75°F77°F79°F80°F81°F80°F76°F75°F74°F74°F73°F72°F72°F70°F69°F68°F66°F65°F64°F63°F62°F61°F61°F
Feels Like 66°F67°F68°F70°F73°F75°F77°F77°F76°F74°F72°F71°F71°F71°F71°F71°F71°F70°F70°F70°F72°F72°F72°F71°F72°F75°F77°F79°F82°F82°F82°F76°F75°F75°F74°F73°F73°F72°F71°F69°F68°F66°F64°F63°F62°F61°F60°F60°F
Cloudiness 21%1%21%41%60%80%100%100%99%98%82%69%3%2%1%1%1%1%1%19%40%51%58%62%100%99%100%100%100%98%79%83%86%89%80%70%3%2%1%1%1%6%30%20%14%10%8%7%
Visibility 6 mi6 mi6 mi6 mi6 mi6 mi6 mi6 mi6 mi6 mi6 mi6 mi6 mi6 mi6 mi6 mi6 mi6 mi6 mi6 mi6 mi6 mi6 mi6 mi6 mi6 mi6 mi6 mi6 mi6 mi6 mi6 mi6 mi6 mi6 mi6 mi6 mi6 mi6 mi6 mi6 mi6 mi6 mi6 mi6 mi6 mi6 mi6 mi
Precipitation 0%0%0%0%0%0%0%0%0%0%0%0%0%0%0%0%0%0%4%13%35%35%35%36%15%13%13%5%3%1%14%38%42%41%18%31%45%48%48%46%46%42%12%12%10%6%5%4%
Humidity 85%90%82%72%61%52%46%51%56%63%70%73%74%75%77%79%81%83%85%85%82%81%81%85%77%66%60%57%56%54%57%71%75%78%80%83%83%82%84%84%78%69%63%59%57%58%59%61%
Dew Point 62°F63°F62°F61°F59°F57°F55°F57°F59°F61°F61°F62°F62°F63°F63°F64°F64°F64°F65°F65°F65°F65°F65°F65°F64°F63°F62°F63°F63°F63°F63°F65°F66°F67°F67°F67°F67°F66°F65°F64°F61°F56°F52°F50°F48°F47°F47°F48°F
Pressure 30.24"30.24"30.24"30.21"30.18"30.15"30.09"30.09"30.09"30.09"30.09"30.09"30.09"30.09"30.09"30.06"30.06"30.06"30.03"30.03"30"30"30"30.03"30.06"30.06"30.03"30.03"30"29.97"29.97"29.97"29.94"29.94"29.97"29.97"29.97"30"30"30"30"30"30"30"30"30"30.03"30.06"
Wind Speed 3.3 mph4.2 mph4.8 mph6 mph7 mph8.8 mph10 mph10.3 mph10 mph9.3 mph8.4 mph8.3 mph8.5 mph8.7 mph8.3 mph8 mph7.8 mph7.7 mph8.1 mph8.2 mph8.6 mph8.8 mph8.6 mph7.6 mph8.3 mph9.7 mph10.4 mph10.6 mph11.2 mph11.1 mph10.7 mph10.1 mph9.7 mph9.6 mph9.4 mph9.6 mph9.1 mph8.6 mph7.1 mph6.6 mph6.2 mph6 mph5.6 mph5.6 mph5.6 mph4.9 mph5 mph5.5 mph
Wind
Direction
255°
WSW
251°
WSW
236°
SW
222°
SW
208°
SSW
200°
SSW
195°
SSW
196°
SSW
199°
SSW
198°
SSW
195°
SSW
198°
SSW
199°
SSW
202°
SSW
206°
SSW
214°
SW
221°
SW
218°
SW
218°
SW
220°
SW
220°
SW
221°
SW
228°
SW
232°
SW
237°
WSW
235°
SW
232°
SW
227°
SW
223°
SW
221°
SW
214°
SW
202°
SSW
199°
SSW
200°
SSW
203°
SSW
204°
SSW
209°
SSW
222°
SW
249°
WSW
271°
W
300°
WNW
312°
NW
308°
NW
313°
NW
310°
NW
307°
NW
307°
NW
307°
NW

Daily Forecast

Date High Low Precip. Humidity
Today
Oct 21

Clouds
78 °F
64 °F
0%
61%
Friday
Oct 22

Rain
81 °F
70 °F
48%
56%
Saturday
Oct 23

Clear
79 °F
61 °F
46%
31%
Sunday
Oct 24

Clear
80 °F
66 °F
0%
40%
Monday
Oct 25

Clear
82 °F
68 °F
1%
50%
Tuesday
Oct 26

Rain
86 °F
71 °F
39%
48%
Wednesday
Oct 27

Clouds
72 °F
62 °F
3%
49%
Thursday
Oct 28

Rain
74 °F
64 °F
100%
89%
Friday
Oct 29

Clear
71 °F
57 °F
0%
33%
Saturday
Oct 30

Clear
66 °F
52 °F
0%
36%
Sunday
Oct 31

Clear
68 °F
50 °F
0%
41%
Monday
Nov 1

Clear
73 °F
56 °F
0%
39%
Tuesday
Nov 2

Clear
76 °F
61 °F
0%
46%
Wednesday
Nov 3

Clouds
71 °F
60 °F
0%
54%
Thursday
Nov 4

Clear
74 °F
58 °F
0%
50%
Friday
Nov 5

Clouds
79 °F
61 °F
0%
46%

Temperature 8-14 Day Outlook



Precipitation 8-14 Day Outlook




Quick Links
Folly Beach News
Folly Beach Photos
Folly Beach Videos




About Us
Contact Us
Site Map
Search Site
Advertise With Us
   
FollyBeach.USCoast.info
THE FOLLY BEACH WEBSITE

Copyright 2021, Coastal Town
Privacy    |    Legal